TimeEST,TemperatureF,Dew PointF,Humidity,Sea Level PressureIn,VisibilityMPH,Wind Direction,Wind SpeedMPH,Gust SpeedMPH,PrecipitationIn,Events,Conditions,WindDirDegrees,DateUTC
12:15 AM,28.4,26.6,93,29.72,10.0,West,16.1,-,N/A,,Unknown,270,2012-12-27 05:15:00
12:35 AM,26.6,26.6,100,29.73,8.0,West,16.1,33.4,N/A,,Unknown,270,2012-12-27 05:35:00
12:55 AM,26.6,26.6,100,29.73,6.0,West,19.6,-,N/A,,Unknown,270,2012-12-27 05:55:00
1:15 AM,26.6,26.6,100,29.75,5.0,West,15.0,28.8,N/A,,Unknown,270,2012-12-27 06:15:00
1:35 AM,26.6,26.6,100,29.77,8.0,West,12.7,-,N/A,,Unknown,280,2012-12-27 06:35:00
1:55 AM,26.6,26.6,100,29.77,8.0,West,15.0,-,N/A,,Unknown,280,2012-12-27 06:55:00
2:15 AM,26.6,26.6,100,29.78,10.0,WNW,12.7,25.3,N/A,,Unknown,290,2012-12-27 07:15:00
2:35 AM,26.6,26.6,100,29.79,10.0,West,15.0,-,N/A,,Unknown,260,2012-12-27 07:35:00
2:55 AM,26.6,26.6,100,29.80,10.0,West,15.0,26.5,N/A,,Unknown,280,2012-12-27 07:55:00
3:15 AM,26.6,26.6,100,29.80,5.0,West,9.2,-,N/A,,Unknown,270,2012-12-27 08:15:00
3:35 AM,26.6,26.6,100,29.82,5.0,West,11.5,-,N/A,,Unknown,280,2012-12-27 08:35:00
3:55 AM,26.6,26.6,100,29.83,8.0,WNW,13.8,25.3,N/A,,Unknown,290,2012-12-27 08:55:00
4:15 AM,26.6,24.8,93,29.83,10.0,West,11.5,-,N/A,,Unknown,280,2012-12-27 09:15:00
4:35 AM,26.6,24.8,93,29.85,6.0,West,15.0,24.2,N/A,,Unknown,270,2012-12-27 09:35:00
4:55 AM,24.8,24.8,100,29.86,10.0,West,10.4,-,N/A,,Unknown,270,2012-12-27 09:55:00
5:35 AM,24.8,24.8,100,29.87,8.0,WNW,13.8,24.2,N/A,,Unknown,290,2012-12-27 10:35:00
5:55 AM,24.8,24.8,100,29.89,9.0,WNW,11.5,-,N/A,,Unknown,290,2012-12-27 10:55:00
6:15 AM,24.8,24.8,100,29.90,10.0,WNW,13.8,-,N/A,,Unknown,290,2012-12-27 11:15:00
6:35 AM,24.8,24.8,100,29.89,10.0,WNW,12.7,-,N/A,,Unknown,290,2012-12-27 11:35:00
6:55 AM,24.8,24.8,100,29.91,10.0,WNW,11.5,-,N/A,,Clear,290,2012-12-27 11:55:00
7:15 AM,24.8,24.8,100,29.93,8.0,West,6.9,-,N/A,,Clear,280,2012-12-27 12:15:00
7:35 AM,24.8,24.8,100,29.93,7.0,West,8.1,-,N/A,,Clear,280,2012-12-27 12:35:00
7:55 AM,24.8,24.8,100,29.92,6.0,WNW,10.4,19.6,N/A,,Unknown,290,2012-12-27 12:55:00
8:15 AM,24.8,24.8,100,29.94,7.0,West,9.2,-,N/A,,Clear,280,2012-12-27 13:15:00
8:35 AM,24.8,24.8,100,29.95,7.0,WNW,10.4,-,N/A,,Clear,290,2012-12-27 13:35:00
8:55 AM,24.8,24.8,100,29.95,7.0,West,12.7,-,N/A,,Clear,280,2012-12-27 13:55:00
9:15 AM,24.8,24.8,100,29.96,8.0,WNW,6.9,-,N/A,,Clear,290,2012-12-27 14:15:00
9:55 AM,24.8,24.8,100,29.98,5.0,WNW,11.5,-,N/A,,Unknown,300,2012-12-27 14:55:00
10:15 AM,24.8,24.8,100,29.97,10.0,WNW,8.1,-,N/A,,Clear,300,2012-12-27 15:15:00
10:55 AM,24.8,24.8,100,29.98,9.0,WNW,11.5,-,N/A,,Clear,300,2012-12-27 15:55:00
11:15 AM,24.8,24.8,100,29.98,10.0,WNW,12.7,-,N/A,,Unknown,300,2012-12-27 16:15:00
11:35 AM,24.8,24.8,100,29.98,10.0,WNW,11.5,-,N/A,,Clear,300,2012-12-27 16:35:00
11:55 AM,24.8,24.8,100,29.97,8.0,West,6.9,-,N/A,,Clear,280,2012-12-27 16:55:00
12:15 PM,24.8,24.8,100,29.97,10.0,WNW,10.4,-,N/A,,Clear,290,2012-12-27 17:15:00
12:35 PM,24.8,24.8,100,29.97,9.0,WNW,10.4,-,N/A,,Clear,290,2012-12-27 17:35:00
12:55 PM,24.8,24.8,100,29.96,7.0,WNW,4.6,-,N/A,,Clear,290,2012-12-27 17:55:00
1:15 PM,24.8,24.8,100,29.96,5.0,WNW,9.2,-,N/A,,Clear,300,2012-12-27 18:15:00
1:35 PM,24.8,24.8,100,29.96,4.0,WNW,6.9,-,N/A,,Unknown,290,2012-12-27 18:35:00
1:55 PM,24.8,24.8,100,29.96,2.5,Variable,5.8,-,N/A,,Unknown,0,2012-12-27 18:55:00
2:15 PM,24.8,24.8,100,29.96,1.8,West,5.8,-,N/A,,Unknown,280,2012-12-27 19:15:00
2:35 PM,24.8,24.8,100,29.96,1.0,WNW,8.1,-,N/A,,Unknown,300,2012-12-27 19:35:00
2:55 PM,24.8,24.8,100,29.97,0.2,WNW,8.1,-,N/A,,Overcast,290,2012-12-27 19:55:00
3:15 PM,24.8,24.8,100,29.98,0.8,West,10.4,-,N/A,,Overcast,280,2012-12-27 20:15:00
3:35 PM,24.8,24.8,100,30.00,0.5,WNW,6.9,-,N/A,,Mostly Cloudy,290,2012-12-27 20:35:00
3:55 PM,24.8,24.8,100,30.01,2.0,Variable,6.9,-,N/A,,Unknown,0,2012-12-27 20:55:00
4:15 PM,24.8,24.8,100,30.01,7.0,WNW,9.2,-,N/A,,Unknown,290,2012-12-27 21:15:00
4:35 PM,24.8,24.8,100,30.01,5.0,NW,8.1,-,N/A,,Clear,310,2012-12-27 21:35:00
5:15 PM,24.8,24.8,100,30.02,3.0,WNW,5.8,-,N/A,,Unknown,300,2012-12-27 22:15:00
5:35 PM,24.8,24.8,100,30.02,6.0,Variable,4.6,-,N/A,,Unknown,0,2012-12-27 22:35:00
5:55 PM,24.8,24.8,100,30.03,4.0,NW,4.6,-,N/A,,Partly Cloudy,310,2012-12-27 22:55:00
6:15 PM,24.8,24.8,100,30.03,3.0,NNW,6.9,-,N/A,,Unknown,330,2012-12-27 23:15:00
6:35 PM,24.8,24.8,100,30.04,7.0,Variable,6.9,-,N/A,,Unknown,0,2012-12-27 23:35:00
6:55 PM,24.8,24.8,100,30.05,7.0,NW,5.8,-,N/A,,Clear,310,2012-12-27 23:55:00
7:15 PM,24.8,24.8,100,30.04,7.0,NNW,4.6,-,N/A,,Clear,330,2012-12-28 00:15:00
7:35 PM,24.8,23.0,93,30.04,6.0,Calm,Calm,-,N/A,,Clear,0,2012-12-28 00:35:00
7:55 PM,24.8,23.0,93,30.04,8.0,Variable,3.5,-,N/A,,Clear,0,2012-12-28 00:55:00
8:15 PM,24.8,23.0,93,30.03,10.0,WNW,3.5,-,N/A,,Clear,300,2012-12-28 01:15:00
8:35 PM,24.8,24.8,100,30.04,8.0,WNW,3.5,-,N/A,,Clear,300,2012-12-28 01:35:00
8:55 PM,24.8,24.8,100,30.05,9.0,Calm,Calm,-,N/A,,Clear,0,2012-12-28 01:55:00
9:15 PM,24.8,24.8,100,30.05,10.0,NNW,3.5,-,N/A,,Clear,330,2012-12-28 02:15:00
9:35 PM,23.0,23.0,100,30.04,10.0,Calm,Calm,-,N/A,,Clear,0,2012-12-28 02:35:00
9:55 PM,24.8,24.8,100,30.04,8.0,Calm,Calm,-,N/A,,Clear,0,2012-12-28 02:55:00
10:15 PM,24.8,24.8,100,30.04,8.0,NW,3.5,-,N/A,,Clear,310,2012-12-28 03:15:00
10:35 PM,24.8,24.8,100,30.05,8.0,Calm,Calm,-,N/A,,Clear,0,2012-12-28 03:35:00
10:55 PM,24.8,24.8,100,30.05,8.0,Calm,Calm,-,N/A,,Clear,0,2012-12-28 03:55:00
11:55 PM,24.8,24.8,100,30.04,8.0,Calm,Calm,-,N/A,,Clear,0,2012-12-28 04:55:00